C/2016 N6 ( PanSTARRS )

Japanese version
Home page
Updated on August 6, 2017

---------------------------------------------------------------------

* Profile

Discovery Date July 14, 2016
Magnitude 20.7 mag
Discoverer Pan-STARRS 1 telescope (Haleakala)

* Pictures

* Orbital Elements

Epoch 2018 July 21.0 TT = JDT 2458320.5
T 2018 July 18.21014 TT                                 MPCW
q   2.6691028            (2000.0)            P               Q
z  +0.0004633      Peri.  162.80505     -0.53334833     +0.08478910
 +/-0.0000013      Node   298.97607     +0.61778034     +0.71870133
e   0.9987634      Incl.  105.83221     +0.57782957     -0.69012985
From 654 observations 2016 June 27-2017 July 5, mean residual 0".4.

* Finding Charts

* Magnitudes Graph

        m1 = 2.5 + 5 log d + 15.0 log r

---------------------------------------------------------------------

The orbital elements are published on M.P.E.C. 2017-N58.
The charts are made with StellaNavigator Ver.10 (AstroArts).
The magnitudes graphs are made with Comet for Windows.

---------------------------------------------------------------------

Copyright(C) Seiichi Yoshida (comet@aerith.net). All rights reserved.